Time,TemperatureF,DewpointF,PressureIn,WindDirection,WindDirectionDegrees,WindSpeedMPH,WindSpeedGustMPH,Humidity,HourlyPrecipIn,Conditions,Clouds,dailyrainin,SoftwareType,DateUTC
2013-07-11 00:00:00,75.6,74.1,29.84,NW,320,0.0,0.0,95,0.00,,---,0.00,VWS V14.01,2013-07-11 04:00:00,
2013-07-11 00:10:00,75.6,74.1,29.84,NW,320,0.0,0.0,95,0.00,,---,0.00,VWS V14.01,2013-07-11 04:10:00,
2013-07-11 00:20:00,75.6,74.1,29.83,NW,320,0.0,0.0,95,0.00,,---,0.00,VWS V14.01,2013-07-11 04:20:00,
2013-07-11 00:30:00,75.6,74.1,29.83,NW,320,0.0,0.0,95,0.00,,---,0.00,VWS V14.01,2013-07-11 04:30:00,
2013-07-11 00:40:00,75.6,74.1,29.83,NW,320,0.0,0.0,95,0.00,,---,0.00,VWS V14.01,2013-07-11 04:40:00,
2013-07-11 00:50:00,75.6,74.1,29.83,NW,320,0.0,0.0,95,0.00,,---,0.00,VWS V14.01,2013-07-11 04:50:00,
2013-07-11 01:00:00,75.6,74.1,29.82,NW,320,0.0,0.0,95,0.00,,---,0.00,VWS V14.01,2013-07-11 05:00:00,
2013-07-11 01:10:00,75.6,74.1,29.82,NW,320,0.0,0.0,95,0.00,,---,0.00,VWS V14.01,2013-07-11 05:10:00,
2013-07-11 01:20:00,75.6,74.1,29.82,NW,320,0.0,0.0,95,0.00,,---,0.00,VWS V14.01,2013-07-11 05:20:00,
2013-07-11 01:30:00,75.6,74.1,29.81,NW,320,0.0,0.0,95,0.00,,---,0.00,VWS V14.01,2013-07-11 05:30:00,
2013-07-11 01:40:00,75.6,74.1,29.81,NW,320,0.0,0.0,95,0.00,,---,0.00,VWS V14.01,2013-07-11 05:40:00,
2013-07-11 01:50:00,75.6,74.1,29.80,NW,320,0.0,0.0,95,0.00,,---,0.00,VWS V14.01,2013-07-11 05:50:00,
2013-07-11 02:00:00,75.6,74.1,29.79,NW,320,0.0,0.0,95,0.00,,---,0.00,VWS V14.01,2013-07-11 06:00:00,
2013-07-11 02:10:00,75.6,74.1,29.79,NW,320,0.0,0.0,95,0.00,,---,0.00,VWS V14.01,2013-07-11 06:10:00,
2013-07-11 02:20:00,75.6,74.1,29.79,NW,320,0.0,0.0,95,0.00,,---,0.00,VWS V14.01,2013-07-11 06:20:00,
2013-07-11 02:30:00,75.6,74.1,29.79,NW,320,0.0,0.0,95,0.00,,---,0.00,VWS V14.01,2013-07-11 06:30:00,
2013-07-11 02:40:00,74.7,73.2,29.79,East,93,0.0,0.0,95,0.00,,---,0.00,VWS V14.01,2013-07-11 06:40:00,
2013-07-11 02:50:00,74.7,73.2,29.79,East,93,0.0,0.0,95,0.00,,---,0.00,VWS V14.01,2013-07-11 06:50:00,
2013-07-11 03:00:00,74.7,73.2,29.78,East,93,0.0,0.0,95,0.00,,---,0.00,VWS V14.01,2013-07-11 07:00:00,
2013-07-11 03:10:00,74.7,73.2,29.78,East,93,0.0,0.0,95,0.00,,---,0.00,VWS V14.01,2013-07-11 07:10:00,
2013-07-11 03:20:00,74.7,73.2,29.78,East,93,0.0,0.0,95,0.00,,---,0.00,VWS V14.01,2013-07-11 07:20:00,
2013-07-11 03:30:00,74.7,73.2,29.78,East,93,0.0,0.0,95,0.00,,---,0.00,VWS V14.01,2013-07-11 07:30:00,
2013-07-11 03:40:00,74.7,73.2,29.78,NE,40,0.0,0.0,95,0.00,,---,0.00,VWS V14.01,2013-07-11 07:40:00,
2013-07-11 03:50:00,74.7,73.2,29.78,NE,40,0.0,0.0,95,0.00,,---,0.00,VWS V14.01,2013-07-11 07:50:00,
2013-07-11 04:00:00,74.7,73.2,29.78,NE,40,0.0,0.0,95,0.00,,---,0.00,VWS V14.01,2013-07-11 08:00:00,
2013-07-11 04:10:00,74.7,73.2,29.78,NE,40,0.0,0.0,95,0.00,,---,0.00,VWS V14.01,2013-07-11 08:10:00,
2013-07-11 04:20:00,74.7,73.2,29.78,NE,40,0.0,0.0,95,0.00,,---,0.00,VWS V14.01,2013-07-11 08:20:00,
2013-07-11 04:30:00,74.7,73.2,29.78,NNE,16,0.0,0.0,95,0.00,,---,0.00,VWS V14.01,2013-07-11 08:30:00,
2013-07-11 04:40:00,73.7,73.7,29.78,NNW,347,0.0,0.0,100,0.00,,---,0.00,VWS V14.01,2013-07-11 08:40:00,
2013-07-11 04:50:00,73.7,73.7,29.79,NNW,347,0.0,0.0,100,0.00,,---,0.00,VWS V14.01,2013-07-11 08:50:00,
2013-07-11 05:00:00,73.7,73.7,29.79,NNW,347,0.0,0.0,100,0.00,,---,0.00,VWS V14.01,2013-07-11 09:00:00,
2013-07-11 05:10:00,73.7,73.7,29.79,North,350,0.0,0.0,100,0.00,,---,0.00,VWS V14.01,2013-07-11 09:10:00,
2013-07-11 05:20:00,73.7,73.7,29.79,North,350,0.0,0.0,100,0.00,,---,0.00,VWS V14.01,2013-07-11 09:20:00,
2013-07-11 05:30:00,73.7,73.7,29.79,North,350,0.0,0.0,100,0.00,,---,0.00,VWS V14.01,2013-07-11 09:30:00,
2013-07-11 05:40:00,73.7,73.7,29.79,North,350,0.0,0.0,100,0.00,,---,0.00,VWS V14.01,2013-07-11 09:40:00,
2013-07-11 05:50:00,73.7,73.7,29.80,North,350,0.0,0.0,100,0.00,,---,0.00,VWS V14.01,2013-07-11 09:50:00,
2013-07-11 06:00:00,73.7,73.7,29.80,North,350,0.0,0.0,100,0.00,,---,0.00,VWS V14.01,2013-07-11 10:00:00,
2013-07-11 06:10:00,73.7,73.7,29.80,North,350,0.0,0.0,100,0.00,,---,0.00,VWS V14.01,2013-07-11 10:10:00,
2013-07-11 06:20:00,73.7,73.7,29.80,North,350,0.0,0.0,100,0.00,,---,0.00,VWS V14.01,2013-07-11 10:20:00,
2013-07-11 06:30:00,73.9,73.9,29.81,North,350,0.0,0.0,100,0.00,,---,0.00,VWS V14.01,2013-07-11 10:30:00,
2013-07-11 06:40:00,73.9,73.9,29.81,North,352,0.0,0.0,100,0.00,,---,0.00,VWS V14.01,2013-07-11 10:40:00,
2013-07-11 06:50:00,74.0,74.0,29.81,North,352,0.0,0.0,100,0.00,,---,0.00,VWS V14.01,2013-07-11 10:50:00,
2013-07-11 07:00:00,74.0,74.0,29.81,North,352,0.0,0.0,100,0.00,,---,0.00,VWS V14.01,2013-07-11 11:00:00,
2013-07-11 07:10:00,74.0,74.0,29.81,NW,311,0.0,0.0,100,0.00,,---,0.00,VWS V14.01,2013-07-11 11:10:00,
2013-07-11 07:20:00,74.4,74.4,29.81,WSW,246,0.0,1.0,100,0.00,,---,0.00,VWS V14.01,2013-07-11 11:20:00,
2013-07-11 07:30:00,74.4,74.4,29.81,NW,322,0.0,0.0,100,0.00,,---,0.00,VWS V14.01,2013-07-11 11:30:00,
2013-07-11 07:40:00,74.7,74.7,29.81,SSW,195,0.0,3.0,100,0.00,,---,0.00,VWS V14.01,2013-07-11 11:40:00,
2013-07-11 07:50:00,75.1,75.1,29.81,WSW,251,0.0,1.0,100,0.00,,---,0.00,VWS V14.01,2013-07-11 11:50:00,
2013-07-11 08:00:00,75.4,75.4,29.81,South,175,0.0,0.0,100,0.00,,---,0.00,VWS V14.01,2013-07-11 12:00:00,
2013-07-11 08:10:00,75.6,75.6,29.81,NNW,347,0.0,0.0,100,0.00,,---,0.00,VWS V14.01,2013-07-11 12:10:00,
2013-07-11 08:20:00,75.8,75.8,29.81,NW,305,0.0,0.0,100,0.00,,---,0.00,VWS V14.01,2013-07-11 12:20:00,
2013-07-11 08:30:00,75.8,75.8,29.82,SSW,208,0.0,5.0,100,0.00,,---,0.00,VWS V14.01,2013-07-11 12:30:00,
2013-07-11 08:40:00,76.0,76.0,29.82,NW,325,0.0,0.0,100,0.00,,---,0.00,VWS V14.01,2013-07-11 12:40:00,
2013-07-11 08:50:00,76.3,76.3,29.81,North,0,0.0,0.0,100,0.00,,---,0.00,VWS V14.01,2013-07-11 12:50:00,
2013-07-11 09:00:00,76.5,76.5,29.82,North,0,0.0,0.0,100,0.00,,---,0.00,VWS V14.01,2013-07-11 13:00:00,
2013-07-11 09:10:00,75.6,75.6,29.81,NNW,347,0.0,0.0,100,0.00,,---,0.00,VWS V14.01,2013-07-11 13:10:00,
2013-07-11 09:20:00,76.5,76.5,29.81,North,354,0.0,0.0,100,0.00,,---,0.00,VWS V14.01,2013-07-11 13:20:00,
2013-07-11 09:30:00,76.7,76.7,29.82,NW,306,0.0,0.0,100,0.00,,---,0.00,VWS V14.01,2013-07-11 13:30:00,
2013-07-11 09:40:00,76.7,76.7,29.82,NNE,14,0.0,0.0,100,0.00,,---,0.00,VWS V14.01,2013-07-11 13:40:00,
2013-07-11 09:50:00,76.3,76.3,29.81,North,0,0.0,0.0,100,0.00,,---,0.00,VWS V14.01,2013-07-11 13:50:00,
2013-07-11 10:00:00,76.5,76.5,29.82,North,0,0.0,0.0,100,0.00,,---,0.00,VWS V14.01,2013-07-11 14:00:00,
2013-07-11 10:10:00,76.5,76.5,29.82,North,0,0.0,0.0,100,0.00,,---,0.00,VWS V14.01,2013-07-11 14:10:00,
2013-07-11 10:15:00,77.2,77.2,29.81,WNW,285,0.0,0.0,100,0.01,,---,0.01,VWS V14.01,2013-07-11 14:15:00,
2013-07-11 10:20:00,77.2,77.2,29.81,North,357,0.0,0.0,100,0.01,,---,0.01,VWS V14.01,2013-07-11 14:20:00,
2013-07-11 10:30:00,77.2,77.2,29.81,North,357,0.0,0.0,100,0.01,,---,0.01,VWS V14.01,2013-07-11 14:30:00,
2013-07-11 10:40:00,77.7,77.7,29.81,North,0,0.0,0.0,100,0.01,,---,0.01,VWS V14.01,2013-07-11 14:40:00,
2013-07-11 10:50:00,77.9,77.6,29.80,NNW,329,0.0,0.0,99,0.01,,---,0.01,VWS V14.01,2013-07-11 14:50:00,
2013-07-11 11:00:00,77.0,77.0,29.81,WNW,285,0.0,0.0,100,0.01,,---,0.01,VWS V14.01,2013-07-11 15:00:00,
2013-07-11 11:10:00,78.3,77.4,29.81,NNW,335,0.0,2.0,97,0.00,,---,0.01,VWS V14.01,2013-07-11 15:10:00,
2013-07-11 11:20:00,78.8,77.6,29.81,ENE,66,0.0,0.0,96,0.00,,---,0.01,VWS V14.01,2013-07-11 15:20:00,
2013-07-11 11:30:00,78.8,77.6,29.81,WNW,284,0.0,5.0,96,0.00,,---,0.01,VWS V14.01,2013-07-11 15:30:00,
2013-07-11 11:40:00,79.0,77.8,29.81,North,353,0.0,0.0,96,0.00,,---,0.01,VWS V14.01,2013-07-11 15:40:00,
2013-07-11 11:50:00,79.2,78.0,29.81,North,353,0.0,0.0,96,0.00,,---,0.01,VWS V14.01,2013-07-11 15:50:00,
2013-07-11 12:00:00,79.6,78.1,29.80,North,1,0.0,0.0,95,0.00,,---,0.01,VWS V14.01,2013-07-11 16:00:00,
2013-07-11 12:10:00,79.8,78.6,29.80,ENE,76,0.0,7.0,96,0.00,,---,0.01,VWS V14.01,2013-07-11 16:10:00,
2013-07-11 12:20:00,79.9,78.7,29.80,WNW,285,0.0,2.0,96,0.00,,---,0.01,VWS V14.01,2013-07-11 16:20:00,
2013-07-11 12:30:00,79.9,78.0,29.80,SSE,154,0.0,1.0,94,0.00,,---,0.01,VWS V14.01,2013-07-11 16:30:00,
2013-07-11 12:40:00,80.1,77.9,29.80,SE,145,0.0,0.0,93,0.00,,---,0.01,VWS V14.01,2013-07-11 16:40:00,
2013-07-11 12:50:00,80.5,78.3,29.80,WNW,282,0.0,0.0,93,0.00,,---,0.01,VWS V14.01,2013-07-11 16:50:00,
2013-07-11 13:00:00,80.7,78.5,29.79,WNW,292,0.0,2.0,93,0.00,,---,0.01,VWS V14.01,2013-07-11 17:00:00,
2013-07-11 13:10:00,81.2,78.3,29.79,SSW,205,0.0,0.0,91,0.00,,---,0.01,VWS V14.01,2013-07-11 17:10:00,
2013-07-11 13:20:00,81.6,78.7,29.79,West,271,0.0,0.0,91,0.00,,---,0.01,VWS V14.01,2013-07-11 17:20:00,
2013-07-11 13:30:00,81.4,78.5,29.78,NNW,342,0.0,0.0,91,0.00,,---,0.01,VWS V14.01,2013-07-11 17:30:00,
2013-07-11 13:40:00,81.8,78.9,29.78,SW,230,0.0,0.0,91,0.00,,---,0.01,VWS V14.01,2013-07-11 17:40:00,
2013-07-11 13:50:00,82.8,78.9,29.78,East,96,0.0,0.0,88,0.00,,---,0.01,VWS V14.01,2013-07-11 17:50:00,
2013-07-11 14:00:00,83.4,78.8,29.77,ENE,58,0.0,0.0,86,0.00,,---,0.01,VWS V14.01,2013-07-11 18:00:00,
2013-07-11 14:10:00,83.6,79.3,29.77,NE,51,0.0,1.0,87,0.00,,---,0.01,VWS V14.01,2013-07-11 18:10:00,
2013-07-11 14:20:00,83.6,79.3,29.77,NE,52,0.0,0.0,87,0.00,,---,0.01,VWS V14.01,2013-07-11 18:20:00,
2013-07-11 14:30:00,83.4,79.8,29.77,NE,44,0.0,0.0,89,0.00,,---,0.01,VWS V14.01,2013-07-11 18:30:00,
2013-07-11 14:40:00,83.2,80.0,29.77,WNW,287,0.0,0.0,90,0.00,,---,0.01,VWS V14.01,2013-07-11 18:40:00,
2013-07-11 14:50:00,82.8,79.9,29.76,WNW,287,0.0,0.0,91,0.00,,---,0.01,VWS V14.01,2013-07-11 18:50:00,
2013-07-11 15:00:00,83.4,78.8,29.77,ENE,58,0.0,0.0,86,0.00,,---,0.01,VWS V14.01,2013-07-11 19:00:00,
2013-07-11 15:10:00,79.9,78.7,29.76,West,275,0.0,3.0,96,0.00,,---,0.01,VWS V14.01,2013-07-11 19:10:00,
2013-07-11 15:20:00,79.4,78.8,29.76,West,275,0.0,0.0,98,0.00,,---,0.01,VWS V14.01,2013-07-11 19:20:00,
2013-07-11 15:30:00,79.2,78.6,29.76,WSW,258,0.0,0.0,98,0.00,,---,0.01,VWS V14.01,2013-07-11 19:30:00,
2013-07-11 15:40:00,79.6,78.7,29.76,WSW,256,0.0,0.0,97,0.00,,---,0.01,VWS V14.01,2013-07-11 19:40:00,
2013-07-11 15:50:00,82.8,79.9,29.76,WNW,287,0.0,0.0,91,0.00,,---,0.01,VWS V14.01,2013-07-11 19:50:00,
2013-07-11 16:00:00,79.2,78.9,29.75,WSW,256,0.0,0.0,99,0.00,,---,0.01,VWS V14.01,2013-07-11 20:00:00,
2013-07-11 16:10:00,79.9,78.7,29.76,West,275,0.0,3.0,96,0.00,,---,0.01,VWS V14.01,2013-07-11 20:10:00,
2013-07-11 16:20:00,78.3,78.3,29.75,WSW,256,0.0,0.0,100,0.02,,---,0.03,VWS V14.01,2013-07-11 20:20:00,
2013-07-11 16:30:00,77.7,77.7,29.75,WSW,256,0.0,0.0,100,0.03,,---,0.04,VWS V14.01,2013-07-11 20:30:00,
2013-07-11 16:40:00,77.7,77.7,29.75,WSW,256,0.0,0.0,100,0.03,,---,0.04,VWS V14.01,2013-07-11 20:40:00,
2013-07-11 16:50:00,77.7,77.7,29.75,WSW,256,0.0,0.0,100,0.03,,---,0.04,VWS V14.01,2013-07-11 20:50:00,
2013-07-11 17:00:00,77.7,77.7,29.76,WSW,256,0.0,0.0,100,0.03,,---,0.04,VWS V14.01,2013-07-11 21:00:00,
2013-07-11 17:10:00,77.7,77.7,29.76,WSW,256,0.0,0.0,100,0.03,,---,0.04,VWS V14.01,2013-07-11 21:10:00,
2013-07-11 17:20:00,77.7,77.7,29.76,WSW,256,0.0,0.0,100,0.03,,---,0.04,VWS V14.01,2013-07-11 21:20:00,
2013-07-11 17:30:00,77.7,77.7,29.76,WSW,256,0.0,0.0,100,0.01,,---,0.04,VWS V14.01,2013-07-11 21:30:00,
2013-07-11 17:40:00,77.7,77.7,29.76,WSW,256,0.0,0.0,100,0.00,,---,0.04,VWS V14.01,2013-07-11 21:40:00,
2013-07-11 17:50:00,77.7,77.7,29.76,East,80,0.0,0.0,100,0.00,,---,0.04,VWS V14.01,2013-07-11 21:50:00,
2013-07-11 18:00:00,75.1,75.1,29.76,East,80,0.0,0.0,100,0.05,,---,0.09,VWS V14.01,2013-07-11 22:00:00,
2013-07-11 18:10:00,74.7,74.7,29.76,East,80,0.0,0.0,100,0.06,,---,0.10,VWS V14.01,2013-07-11 22:10:00,
2013-07-11 18:20:00,73.9,73.9,29.75,ENE,73,0.0,2.0,100,0.06,,---,0.10,VWS V14.01,2013-07-11 22:20:00,
2013-07-11 18:30:00,73.5,73.5,29.75,East,85,0.0,0.0,100,0.06,,---,0.10,VWS V14.01,2013-07-11 22:30:00,
2013-07-11 18:40:00,73.3,73.3,29.75,East,85,0.0,0.0,100,0.06,,---,0.10,VWS V14.01,2013-07-11 22:40:00,
2013-07-11 18:50:00,73.3,73.3,29.75,East,85,0.0,0.0,100,0.06,,---,0.10,VWS V14.01,2013-07-11 22:50:00,
2013-07-11 19:00:00,75.1,75.1,29.76,East,80,0.0,0.0,100,0.05,,---,0.09,VWS V14.01,2013-07-11 23:00:00,
2013-07-11 19:10:00,73.3,73.3,29.75,East,83,0.0,0.0,100,0.03,,---,0.12,VWS V14.01,2013-07-11 23:10:00,
2013-07-11 19:20:00,73.9,73.9,29.75,ENE,73,0.0,2.0,100,0.06,,---,0.10,VWS V14.01,2013-07-11 23:20:00,
2013-07-11 19:30:00,73.3,73.3,29.76,East,83,0.0,0.0,100,0.03,,---,0.13,VWS V14.01,2013-07-11 23:30:00,
2013-07-11 19:40:00,73.2,73.2,29.76,East,83,0.0,0.0,100,0.04,,---,0.14,VWS V14.01,2013-07-11 23:40:00,
2013-07-11 19:50:00,73.2,73.2,29.76,East,83,0.0,0.0,100,0.04,,---,0.14,VWS V14.01,2013-07-11 23:50:00,
2013-07-11 20:00:00,73.0,73.0,29.76,East,83,0.0,0.0,100,0.05,,---,0.15,VWS V14.01,2013-07-12 00:00:00,
2013-07-11 20:10:00,73.3,73.3,29.75,East,83,0.0,0.0,100,0.03,,---,0.12,VWS V14.01,2013-07-12 00:10:00,
2013-07-11 20:20:00,73.0,73.0,29.75,East,83,0.0,0.0,100,0.03,,---,0.15,VWS V14.01,2013-07-12 00:20:00,
2013-07-11 20:30:00,72.8,72.8,29.74,East,83,0.0,0.0,100,0.03,,---,0.15,VWS V14.01,2013-07-12 00:30:00,
2013-07-11 20:40:00,72.8,72.8,29.74,East,83,0.0,0.0,100,0.05,,---,0.18,VWS V14.01,2013-07-12 00:40:00,
2013-07-11 20:50:00,72.8,72.8,29.74,East,83,0.0,0.0,100,0.04,,---,0.18,VWS V14.01,2013-07-12 00:50:00,
2013-07-11 21:00:00,72.8,72.8,29.74,East,83,0.0,0.0,100,0.04,,---,0.18,VWS V14.01,2013-07-12 01:00:00,
2013-07-11 21:10:00,72.8,72.8,29.74,East,83,0.0,0.0,100,0.03,,---,0.18,VWS V14.01,2013-07-12 01:10:00,
2013-07-11 21:20:00,72.8,72.8,29.74,East,83,0.0,0.0,100,0.03,,---,0.18,VWS V14.01,2013-07-12 01:20:00,
2013-07-11 21:30:00,72.8,72.8,29.75,East,83,0.0,0.0,100,0.03,,---,0.18,VWS V14.01,2013-07-12 01:30:00,
2013-07-11 21:40:00,72.8,72.8,29.75,East,83,0.0,0.0,100,0.03,,---,0.18,VWS V14.01,2013-07-12 01:40:00,
2013-07-11 21:50:00,72.8,72.8,29.76,East,83,0.0,0.0,100,0.00,,---,0.18,VWS V14.01,2013-07-12 01:50:00,
2013-07-11 22:00:00,72.8,72.8,29.76,East,83,0.0,0.0,100,0.00,,---,0.18,VWS V14.01,2013-07-12 02:00:00,
2013-07-11 22:10:00,72.8,72.8,29.74,East,83,0.0,0.0,100,0.03,,---,0.18,VWS V14.01,2013-07-12 02:10:00,
2013-07-11 22:20:00,72.8,72.8,29.77,East,83,0.0,0.0,100,0.00,,---,0.18,VWS V14.01,2013-07-12 02:20:00,
2013-07-11 22:30:00,72.8,72.8,29.77,East,83,0.0,0.0,100,0.00,,---,0.18,VWS V14.01,2013-07-12 02:30:00,
2013-07-11 22:40:00,72.8,72.8,29.75,East,83,0.0,0.0,100,0.03,,---,0.18,VWS V14.01,2013-07-12 02:40:00,
2013-07-11 22:50:00,72.8,72.8,29.77,East,83,0.0,0.0,100,0.00,,---,0.18,VWS V14.01,2013-07-12 02:50:00,
2013-07-11 23:00:00,72.8,72.8,29.76,East,83,0.0,0.0,100,0.00,,---,0.18,VWS V14.01,2013-07-12 03:00:00,
2013-07-11 23:10:00,72.8,72.8,29.76,ESE,102,0.0,0.0,100,0.00,,---,0.18,VWS V14.01,2013-07-12 03:10:00,
2013-07-11 23:20:00,72.8,72.8,29.77,East,83,0.0,0.0,100,0.00,,---,0.18,VWS V14.01,2013-07-12 03:20:00,
2013-07-11 23:30:00,72.8,72.8,29.77,East,83,0.0,0.0,100,0.00,,---,0.18,VWS V14.01,2013-07-12 03:30:00,
2013-07-11 23:40:00,72.8,72.8,29.76,ESE,102,0.0,0.0,100,0.00,,---,0.18,VWS V14.01,2013-07-12 03:40:00,
2013-07-11 23:50:00,72.8,72.8,29.75,ESE,102,0.0,0.0,100,0.00,,---,0.18,VWS V14.01,2013-07-12 03:50:00,